Погода в Киржеманах

Россия / Республика Мордовия     54°25′23″N   45°50′44″E
темп.,
°C
ветер,
м/с
пор.,
м/с
влажн.,
%
обл.,
%
осадки,
мм/ч
давл.,
гПа
погр.,
м
21 января, пт
пт2100:00−14ю5139394 0.0 1017279
03:00−17ю499897 0.0 1017146
06:00−19ююв410100100 0.0 1016163
09:00−17ююв41597100 0.0 1016262
12:00−10ю71789100 0.0 1015520
15:00−8ююв81884100 0.0 1013545
18:00−9ююв91982100 0.0 1012600
21:00−8ююв91890100 0.0 1012651
22 января, сб
сб2200:00−8ююв81794100 0.4 1011609
03:00−7ююв8159197 1.4 1012518
06:00−7ююв51193100 0.0 1013272
09:00−7юв51194100 0.0 1014289
12:00−5юв5995100 0.2 1015396
15:00−5юв51095100 1.1 1015497
18:00−3ююв51196100 0.8 1015637
21:00−3юз369699 2.1 1017374
23 января, вс
вс2300:00−11ю229964 0.0 102010
03:00−12ююв1110092 0.1 10229
06:00−12ю1199100 0.1 10249
09:00−11юв1199100 0.1 102610
12:00−6юв1294100 0.0 1027122
15:00−6всв1196100 0.0 102911
18:00−6всв2497100 0.0 103182
21:00−6в2497100 0.1 1032106
24 января, пн
пн2400:00−6в2497100 0.2 103391
03:00−6в2496100 0.7 1035162
06:00−9вюв3792100 0.1 1035111
09:00−11вюв2688100 0.1 1037105
12:00−9в268698 0.0 1037166
15:00−10в229197 0.0 103721
18:00−12в3691100 0.0 103778
21:00−16в22966 0.0 103713
25 января, вт
вт2500:00−18юв229835 0.0 103611
03:00−19юв229971 0.0 103610
06:00−20юв22100100 0.0 103511
09:00−18ююв339550 0.0 103336
12:00−12ююв2586100 0.0 1031122
15:00−12юв1192100 0.0 103010
18:00−16ююв2297100 0.0 102911
21:00−17ююв2297100 0.0 102818